Weather in Kullu

India     31°57′36″N   77°06′59″E
temp.,
°C
wind,
m/s
gust,
m/s
humid.,
%
clouds,
%
prec.,
mm/h
press.,
hPa
HPBL,
m
15 april, thu
thu1523:30+9nne434718 0.5 101954
02:30+9n434296 0.0 101958
05:30+8nne434148 0.0 101873
08:30+15e122299 0.0 1017757
11:30+20s331782 0.0 10153325
14:30+17nw4527100 0.4 10142764
17:30+15ese3335100 0.6 10141011
20:30+9nne4461100 0.4 101891
16 april, fri
fri1623:30+10nne434797 0.4 101761
02:30+10nne334085 0.0 101558
05:30+9nne43404 0.0 101557
08:30+16ene1226100 0.0 1015817
11:30+20ssw341993 0.1 10133420
14:30+20ssw4519100 0.1 10113606
17:30+12nne3448100 0.6 1015481
20:30+9ene3473100 0.6 1017140
17 april, sat
sat1723:30+7nne3382100 3.1 1018146
02:30+8n1180100 2.1 101551
05:30+8nne2279100 2.9 101575
08:30+11ne226392 1.6 1016346
11:30+15sw3448100 3.6 10151857
14:30+7ene3395100 8.7 1018215
17:30+3ene3497100 34.8 1021192
20:30+5ne4488100 2.9 102177
18 april, sun
sun1823:30+5nne44792 2.9 102044
02:30+4n54761 0.0 102052
05:30+4n557242 0.1 102055
08:30+10ene1256100 0.0 1018310
11:30+5ne3488100 4.6 1024411
14:30+11e236321 1.0 1018706
17:30+11ne3366100 1.1 1016422
20:30+7n5566100 0.1 101863
19 april, mon
mon1923:30+6nne4581100 1.6 1020121
02:30+3nne55763 0.7 101971
05:30+3nne66670 0.7 101772
08:30+11ne23481 0.0 1015317
11:30+16ese11334 0.0 10141764
14:30+17ssw232653 0.1 10123107
17:30+15ene114019 0.2 1012558
20:30+7n65530 0.0 101767